El Segundo, CA

8:45 AM PST on December 03, 2016 (GMT -0800)
Los Angeles International

Weather History for KLAX - April, 2014

Change the Weather History Date:

Monday, April 7, 2014

  Actual Average Record
Temperature  
Mean Temperature 69 °F 59 °F  
Max Temperature 81 °F 66 °F 93 °F (1989)
Min Temperature 56 °F 53 °F 45 °F (1964)
Degree Days  
Heating Degree Days 0 6  
Month to date heating degree days 41 43  
Since 1 July heating degree days 686 1193  
Cooling Degree Days 4 0  
Month to date cooling degree days 4 0  
Year to date cooling degree days 39 15  
Growing Degree Days 18 (Base 50)    
Moisture  
Dew Point 45 °F    
Average Humidity 42    
Maximum Humidity 62    
Minimum Humidity 21    
Precipitation  
Precipitation 0.00 in 0.03 in 0.48 in (2001)
Month to date precipitation 0.17 0.23  
Year to date precipitation 3.32 8.04  
Since 1 July precipitation 4.36  
Sea Level Pressure  
Sea Level Pressure 30.07 in    
Wind  
Wind Speed 6 mph (SW)    
Max Wind Speed 16 mph    
Max Gust Speed 20 mph    
Visibility 10 miles    
Events      
T = Trace of Precipitation, MM = Missing Value Source: NWS Daily Summary

Daily Weather History Graph

Daily Weather History Graph

Search for Another Location

Airport or City:

Trip Planner

Search our weather history database for the weather conditions in past years. The results will help you decide how hot, cold, wet, or windy it might be!

Date:

Astronomy

Apr. 07, 2014 Rise Set
Actual Time 6:32 AM PDT 7:18 PM PDT
Civil Twilight 6:07 AM PDT 7:44 PM PDT
Nautical Twilight 5:37 AM PDT 8:14 PM PDT
Astronomical Twilight 5:06 AM PDT 8:45 PM PDT
Moon 12:40 PM PDT (4/7) 1:52 AM PDT (4/7)
Length of Visible Light 13h 36m
Length of Day
12h 46m
First Quarter, 54% of the Moon is Illuminated
Apr 7
First Quarter
Apr 15
Full
Apr 22
Last Quarter
Apr 28
New
May 6
First Quarter

Hourly Weather History & Observations

Time (PDT) Temp. Dew Point Humidity Pressure Visibility Wind Dir Wind Speed Gust Speed Precip Events Conditions
12:53 AM 62.1 °F 46.0 °F 56% 30.06 in 10.0 mi ESE 4.6 mph - N/A   Clear
1:53 AM 60.1 °F 46.0 °F 60% 30.05 in 10.0 mi Calm Calm - N/A   Clear
2:53 AM 59.0 °F 46.0 °F 62% 30.05 in 10.0 mi East 3.5 mph - N/A   Clear
3:53 AM 59.0 °F 43.0 °F 55% 30.05 in 10.0 mi ENE 3.5 mph - N/A   Clear
4:53 AM 55.9 °F 42.1 °F 60% 30.04 in 10.0 mi East 3.5 mph - N/A   Clear
5:53 AM 59.0 °F 42.1 °F 53% 30.05 in 10.0 mi Calm Calm - N/A   Clear
6:53 AM 59.0 °F 39.0 °F 48% 30.07 in 10.0 mi Calm Calm - N/A   Clear
7:53 AM 64.0 °F 39.0 °F 40% 30.08 in 10.0 mi East 4.6 mph - N/A   Clear
8:53 AM 68.0 °F 37.9 °F 33% 30.09 in 10.0 mi East 5.8 mph - N/A   Clear
9:53 AM 73.9 °F 37.9 °F 27% 30.10 in 10.0 mi ESE 4.6 mph - N/A   Clear
10:53 AM 79.0 °F 36.0 °F 21% 30.10 in 10.0 mi South 3.5 mph - N/A   Partly Cloudy
11:29 AM 71.6 °F 51.8 °F 50% 30.11 in 10.0 mi West 13.8 mph - N/A   Partly Cloudy
11:53 AM 70.0 °F 50.0 °F 49% 30.11 in 10.0 mi West 12.7 mph - N/A   Partly Cloudy
12:53 PM 71.1 °F 48.9 °F 45% 30.11 in 10.0 mi West 11.5 mph - N/A   Partly Cloudy
1:53 PM 73.9 °F 44.1 °F 34% 30.10 in 10.0 mi West 12.7 mph - N/A   Clear
2:53 PM 72.0 °F 48.9 °F 44% 30.08 in 10.0 mi West 13.8 mph - N/A   Clear
3:53 PM 72.0 °F 46.9 °F 41% 30.06 in 10.0 mi West 15.0 mph - N/A   Clear
4:53 PM 73.0 °F 45.0 °F 37% 30.06 in 10.0 mi West 15.0 mph - N/A   Clear
5:53 PM 73.0 °F 44.1 °F 35% 30.05 in 10.0 mi West 11.5 mph - N/A   Clear
6:53 PM 70.0 °F 45.0 °F 41% 30.04 in 10.0 mi West 9.2 mph - N/A   Clear
7:53 PM 69.1 °F 46.0 °F 44% 30.04 in 10.0 mi West 3.5 mph - N/A   Clear
8:53 PM 68.0 °F 46.0 °F 45% 30.05 in 10.0 mi SW 5.8 mph - N/A   Clear
9:53 PM 66.0 °F 50.0 °F 56% 30.06 in 10.0 mi West 3.5 mph - N/A   Clear
10:53 PM 64.9 °F 48.9 °F 56% 30.07 in 10.0 mi West 4.6 mph - N/A   Clear
11:53 PM 63.0 °F 48.9 °F 60% 30.07 in 10.0 mi East 5.8 mph - N/A   Clear